Location: Cluj-Napoca
(46.7712°N, 23.6236°E)
Time: 13:19:33
(UTC+02:00)

AO-73 - Visible Passes

Search period start: 06 December 2021 00:00
Search period end: 16 December 2021 00:00
Orbit: 581 x 660 km, 97.6° (Epoch: 05 December)

Date Brightness Start Highest point End Pass type
(mag) Time Alt. Az. Time Alt. Az. Time Alt. Az.
06 Dec ? 05:51:40 10° N 05:52:34 15° N 05:52:34 15° N visible
07 Dec ? 04:32:54 10° NNE 04:32:57 10° NNE 04:32:57 10° NNE visible
07 Dec ? 06:09:34 10° NNW 06:10:08 13° NNW 06:10:08 13° NNW visible
07 Dec ? 17:07:34 10° SW 17:10:47 20° W 17:14:05 10° NW visible
08 Dec ? 04:50:20 10° NNE 04:50:32 11° NNE 04:50:32 11° NNE visible
08 Dec ? 06:27:39 10° NNW 06:27:42 10° NNW 06:27:42 10° NNW visible
08 Dec ? 17:26:20 10° WSW 17:28:32 14° W 17:30:47 10° WNW visible
09 Dec ? 05:07:52 10° NNE 05:08:06 11° NNE 05:08:06 11° NNE visible
10 Dec ? 05:25:30 10° N 05:25:41 11° N 05:25:41 11° N visible
11 Dec ? 05:43:12 10° N 05:43:17 10° N 05:43:17 10° N visible
13 Dec ? 17:17:13 10° SW 17:20:02 17° W 17:22:55 10° NW visible
14 Dec ? 17:36:34 10° WSW 17:37:49 11° W 17:39:05 10° WNW visible
